Location: Kosice
(0.0000°N, 21.2500°E)
Time: 10:21:51
(UTC+02:00)

NOSS 3-3 (A) - Visible Passes

Search period start: 11 May 2021 00:00
Search period end: 21 May 2021 00:00
Orbit: 805 x 1407 km, 63.4° (Epoch: 09 May)

Date Brightness Start Highest point End Pass type
(mag) Time Alt. Az. Time Alt. Az. Time Alt. Az.
11 May 7.5 06:03:14 10° NNE 06:08:52 19° ENE 06:14:32 10° ESE visible
11 May 3.7 19:31:53 10° SSW 19:37:20 78° WNW 19:42:48 10° NNE visible
12 May 3.8 18:47:24 10° S 18:52:40 48° ESE 18:57:53 10° NE visible
13 May 6.1 19:54:17 10° WSW 19:58:27 22° WNW 20:02:40 10° NNW visible
14 May 7.0 05:38:29 10° NNE 05:45:24 27° ENE 05:52:21 10° ESE visible
14 May 4.8 19:08:31 10° SW 19:13:44 48° WNW 19:19:01 10° N visible
15 May 7.6 04:56:13 10° NE 05:00:32 15° ENE 05:04:52 10° E visible
16 May 5.4 05:58:13 10° NNW 06:06:42 64° ENE 06:15:11 10° SSE visible
16 May 6.9 19:32:11 10° W 19:34:55 14° WNW 19:37:41 10° NW visible
17 May 6.3 05:14:10 10° N 05:21:54 38° ENE 05:29:41 10° SE visible
18 May 7.0 04:30:56 10° NNE 04:37:05 22° ENE 04:43:15 10° ESE visible
19 May 7.6 03:50:19 10° NE 03:52:11 11° ENE 03:54:02 10° ENE visible
19 May 4.9 05:34:33 10° NNW 05:43:11 86° ENE 05:51:48 10° SSE visible
20 May 5.6 04:50:08 10° N 04:58:24 52° ENE 05:06:42 10° SE visible
